Content
SEND FEEDBACK

Daily
Averages
Monthly
Summary
United States of America

PARLIN, COLORADO


Home > North America > United States > Colorado
Elevation: 8446 feet     Latitude: 38 26N     Longitude: 106 46W

WEATHER
 
SELECT A DAY
Number of Records: 447,874;   Date Range: 1/1/95 - 8/12/14
 
SHARE

PRINT THIS DATA

[ ← Previous Day ]
WEATHER ALMANAC - FEBRUARY 13, 2013
[ Next Day → ]
[ °C ]   °F
Weather ElementAverageHighLow
Temperature6.4 °F28.4 °F (4:55 pm)-11.2 °F (6:55 am)
Dewpoint-2.3 °F14 °F (5:55 pm)-23.8 °F (7:15 am)
Humidity69.4 %100 % (1:35 am)43 % (9:55 am)
Barometer30.19 in30.25 in (8:15 am)30.12 in (4:35 pm)
Wind Speed2.2 mph10.4 mph (5:55 pm)
Weather ElementAverage
Visibility9.9 mi
Wind DirectionENE (64.5 °)

Weather ElementTotal
Precipitation---
Heating Degree Days56.4 (Base 65)
Averaged from 66 records on February 13, 2013
WEATHER CONDITIONS BREAKOUT
WIND DIRECTION BREAKOUT
WEATHER BY HOUR - FEBRUARY 13, 2013
[ °C ]   °F
Local TimeTemperatureDewpointHumidityBarometerVisibilityWind DirectionWind SpeedGust SpeedPrecipitationEventsConditions
12:35 AM-0.4 °F-13.0 °F55 %30.20 in10.0 miCalmClear
12:55 AM-5.8 °F-9.4 °F84 %30.21 in10.0 miCalmClear
1:15 AM-4.0 °F-9.4 °F78 %30.22 in10.0 miNE (50°)4.6 mphClear
1:35 AM-4.0 °F-4.0 °F100 %30.22 in10.0 miNE (50°)3.5 mphClear
1:55 AM-2.2 °F-11.2 °F66 %30.22 in10.0 miCalmClear
2:15 AM-5.8 °F-5.8 °F100 %30.23 in10.0 miENE (70°)4.6 mphClear
2:35 AM-7.6 °F-16.6 °F65 %30.21 in10.0 miCalmClear
2:55 AM-5.8 °F-5.8 °F100 %30.20 in10.0 miNE (50°)4.6 mphClear
3:15 AM-5.8 °F-7.6 °F92 %30.20 in10.0 miCalmClear
3:35 AM-5.8 °F-18.4 °F55 %30.20 in10.0 miENE (70°)3.5 mphClear
3:55 AM-7.6 °F-9.4 °F92 %30.20 in10.0 miENE (70°)4.6 mphClear
4:15 AM-5.8 °F-5.8 °F100 %30.21 in10.0 miENE (60°)4.6 mphClear
4:35 AM-7.6 °F-13.0 °F77 %30.22 in10.0 miENE (70°)4.6 mphClear
4:55 AM-7.6 °F-9.4 °F92 %30.21 in10.0 miCalmClear
5:15 AM-7.6 °F-11.2 °F84 %30.21 in10.0 miCalmClear
5:35 AM-9.4 °F-18.4 °F65 %30.22 in10.0 miCalmClear
5:55 AM-7.6 °F-9.4 °F92 %30.22 in10.0 miCalmClear
6:15 AM-7.6 °F-14.8 °F71 %30.22 in10.0 miNNE (30°)3.5 mphClear
6:35 AM-7.6 °F-11.2 °F84 %30.22 in10.0 miCalmClear
6:55 AM-11.2 °F-14.8 °F84 %30.22 in10.0 miSouth (180°)3.5 mphClear
7:15 AM-11.2 °F-23.8 °F54 %30.23 in10.0 miCalmClear
7:35 AM-9.4 °F-9.4 °F100 %30.23 in10.0 miCalmClear
7:55 AM-9.4 °F-14.8 °F77 %30.23 in10.0 miCalmClear
8:15 AM-9.4 °F-23.8 °F49 %30.25 in10.0 miEast (90°)3.5 mphClear
8:35 AM-7.6 °F-18.4 °F59 %30.25 in10.0 miEast (100°)3.5 mphClear
8:55 AM-5.8 °F-16.6 °F60 %30.25 in10.0 miCalmClear
9:15 AM-2.2 °F-11.2 °F66 %30.25 in10.0 miCalmClear
9:35 AM1.4 °F-0.4 °F92 %30.25 in10.0 miCalmClear
9:55 AM-0.4 °F-18.4 °F43 %30.25 in10.0 miEast (90°)3.5 mphClear
10:15 AM5.0 °F0.0 °F30.25 in10.0 miENE (70°)3.5 mphClear
10:35 AM6.8 °F-4.0 °F61 %30.25 in10.0 miEast (80°)4.6 mphClear
11:15 AM8.6 °F-0.4 °F67 %30.23 in10.0 miCalmClear
11:35 AM10.4 °F3.2 °F73 %30.23 in10.0 miCalmClear
12:15 PM12.2 °F3.2 °F67 %30.21 in10.0 miCalmClear
12:35 PM14.0 °F1.4 °F57 %30.19 in10.0 miSE (140°)3.5 mphClear
12:55 PM15.8 °F5.0 °F62 %30.18 in10.0 miSE (140°)3.5 mphClear
1:15 PM15.8 °F3.2 °F58 %30.16 in10.0 miCalmClear
1:35 PM17.6 °F6.8 °F63 %30.15 in10.0 miEast (80°)3.5 mphClear
1:55 PM19.4 °F6.8 °F58 %30.14 in10.0 miEast (90°)3.5 mphClear
2:15 PM19.4 °F6.8 °F58 %30.13 in10.0 miCalmClear
2:35 PM23.0 °F10.4 °F59 %30.13 in10.0 miCalmClear
2:55 PM24.8 °F8.6 °F50 %30.13 in10.0 miNorth (360°)3.5 mphClear
3:15 PM24.8 °F8.6 °F50 %30.13 in10.0 miNorth (10°)4.6 mphClear
3:35 PM26.6 °F10.4 °F51 %30.13 in10.0 miCalmClear
4:15 PM24.8 °F10.4 °F54 %30.13 in10.0 miEast (100°)3.5 mphClear
4:35 PM26.6 °F10.4 °F51 %30.12 in10.0 miCalmClear
4:55 PM28.4 °F12.2 °F51 %30.12 in10.0 miWNW (290°)4.6 mphClear
5:15 PM28.4 °F10.4 °F47 %30.12 in10.0 miWest (270°)4.6 mphClear
5:35 PM26.6 °F12.2 °F55 %30.12 in10.0 miWest (260°)8.1 mphClear
5:55 PM26.6 °F14.0 °F59 %30.12 in10.0 miWSW (250°)10.4 mphClear
6:35 PM23.0 °F8.6 °F54 %30.14 in10.0 miCalmClear
6:55 PM21.2 °F12.2 °F68 %30.14 in10.0 miNorthClear
7:15 PM19.4 °F6.8 °F58 %30.14 in10.0 miNNW (330°)3.5 mphClear
7:36 PM17.6 °F6.8 °F63 %30.15 in10.0 miNorth (360°)4.6 mphClear
7:55 PM15.8 °F3.2 °F58 %30.15 in10.0 miNorth (360°)6.9 mphClear
8:15 PM15.8 °F6.8 °F68 %30.16 in10.0 miNorth (10°)5.8 mphClear
8:35 PM14.0 °F5.0 °F67 %30.16 in10.0 miNNE (30°)4.6 mphClear
8:55 PM12.2 °F6.8 °F79 %30.16 in10.0 miCalmClear
9:15 PM10.4 °F1.4 °F67 %30.17 in10.0 miCalmClear
9:35 PM8.6 °F1.4 °F73 %30.17 in10.0 miCalmClear
10:15 PM8.6 °F1.4 °F73 %30.17 in10.0 miCalmClear
10:35 PM8.6 °F3.2 °F79 %30.18 in9.0 miCalmClear
10:55 PM6.8 °F3.2 °F85 %30.18 in5.0 miCalmClear
11:15 PM8.6 °F1.4 °F73 %30.18 in9.0 miCalmClear
11:35 PM5.0 °F-2.2 °F72 %30.19 in10.0 miCalmClear
11:55 PM3.2 °F-0.4 °F85 %30.19 in10.0 miNE (50°)3.5 mphClear
Hourly data recorded from KGUC, located miles away from Parlin, Colorado







STORIES FROM OUR PARTNERS